Stations météo

réclame
Mon MeteoGroup
Capo Frasca, Italie (16539): Température de l'air & dewpoint: 12.12.2017 03:00:00 - 18.12.2017 03:00:00 (CET)Capo Frasca, Italie (16539): Vitesse du vent: 12.12.2017 03:00:00 - 18.12.2017 03:00:00 (CET)Capo Frasca, Italie (16539): Direction du vent: 12.12.2017 03:00:00 - 18.12.2017 03:00:00 (CET)Capo Frasca, Italie (16539): reduced air pressure: 12.12.2017 03:00:00 - 18.12.2017 03:00:00 (CET)Capo Frasca, Italie (16539): visibility: 12.12.2017 03:00:00 - 18.12.2017 03:00:00 (CET)
Date & Time tt [°C] td [°C] ff [km/h] ff [knt] dd ppp [hPa] vv [km]
18.12.2017 03:00:00 - - - - - - -
18.12.2017 02:00:00 - - - - - - -
18.12.2017 01:00:00 - - - - - - -
18.12.2017 00:00:00 - - - - - - -
17.12.2017 23:00:00 - - - - - - -
17.12.2017 22:00:00 - - - - - - -
17.12.2017 21:00:00 - - - - - - -
17.12.2017 20:00:00 - - - - - - -
17.12.2017 19:00:00 8,2 7,9 13 7 N 1020,4 15
17.12.2017 18:00:00 - - - - - - -
17.12.2017 17:00:00 - - - - - - -
17.12.2017 16:00:00 8,0 7,2 5 3 WNW 1018,1 15
17.12.2017 15:00:00 - - - - - - -
17.12.2017 14:00:00 - - - - - - -
17.12.2017 13:00:00 9,8 9,8 18 10 NNW 1017,9 15
17.12.2017 12:00:00 - - - - - - -
17.12.2017 11:00:00 - - - - - - -
17.12.2017 10:00:00 10,2 7,4 42 23 WNW 1017,9 15
17.12.2017 09:00:00 - - - - - - -
17.12.2017 08:00:00 - - - - - - -
17.12.2017 07:00:00 10,4 8,5 39 21 WNW 1016,4 15
17.12.2017 06:00:00 - - - - - - -
17.12.2017 05:00:00 - - - - - - -
17.12.2017 04:00:00 - - - - - - -
17.12.2017 03:00:00 - - - - - - -
17.12.2017 02:00:00 - - - - - - -
17.12.2017 01:00:00 - - - - - - -
17.12.2017 00:00:00 - - - - - - -
16.12.2017 23:00:00 - - - - - - -
16.12.2017 22:00:00 - - - - - - -
16.12.2017 21:00:00 - - - - - - -
16.12.2017 20:00:00 - - - - - - -
16.12.2017 19:00:00 10,8 4,1 28 15 NW 1012,1 20
16.12.2017 18:00:00 - - - - - - -
16.12.2017 17:00:00 - - - - - - -
16.12.2017 16:00:00 12,6 9,2 35 19 NW 1010,6 25
16.12.2017 15:00:00 - - - - - - -
16.12.2017 14:00:00 - - - - - - -
16.12.2017 13:00:00 11,8 6,1 28 15 NW 1010,4 25
16.12.2017 12:00:00 - - - - - - -
16.12.2017 11:00:00 - - - - - - -
16.12.2017 10:00:00 12,0 7,1 28 15 NW 1009,5 25
16.12.2017 09:00:00 - - - - - - -
16.12.2017 08:00:00 - - - - - - -
16.12.2017 07:00:00 11,4 11,1 28 15 NNW 1007,7 20
16.12.2017 06:00:00 - - - - - - -
16.12.2017 05:00:00 - - - - - - -
16.12.2017 04:00:00 - - - - - - -
16.12.2017 03:00:00 - - - - - - -
16.12.2017 02:00:00 - - - - - - -
16.12.2017 01:00:00 - - - - - - -
16.12.2017 00:00:00 - - - - - - -
15.12.2017 23:00:00 - - - - - - -
15.12.2017 22:00:00 - - - - - - -
15.12.2017 21:00:00 - - - - - - -
15.12.2017 20:00:00 - - - - - - -
15.12.2017 19:00:00 12,0 11,9 18 10 NW 1004,8 15
15.12.2017 18:00:00 - - - - - - -
15.12.2017 17:00:00 - - - - - - -
15.12.2017 16:00:00 14,6 14,6 34 18 W 1002,0 2,0
15.12.2017 15:00:00 - - - - - - -
15.12.2017 14:00:00 - - - - - - -
15.12.2017 13:00:00 15,4 15,4 42 23 SW 1003,6 2,0
15.12.2017 12:00:00 - - - - - - -
15.12.2017 11:00:00 - - - - - - -
15.12.2017 10:00:00 15,4 15,4 31 17 SW 1007,2 8
15.12.2017 09:00:00 - - - - - - -
15.12.2017 08:00:00 - - - - - - -
15.12.2017 07:00:00 15,2 15,2 26 14 SW 1008,5 20
15.12.2017 06:00:00 - - - - - - -
15.12.2017 05:00:00 - - - - - - -
15.12.2017 04:00:00 - - - - - - -
15.12.2017 03:00:00 - - - - - - -
15.12.2017 02:00:00 - - - - - - -
15.12.2017 01:00:00 - - - - - - -
15.12.2017 00:00:00 - - - - - - -
14.12.2017 23:00:00 - - - - - - -
14.12.2017 22:00:00 - - - - - - -
14.12.2017 21:00:00 - - - - - - -
14.12.2017 20:00:00 - - - - - - -
14.12.2017 19:00:00 15,4 15,4 22 12 SW 1015,5 12
14.12.2017 18:00:00 - - - - - - -
14.12.2017 17:00:00 - - - - - - -
14.12.2017 16:00:00 16,0 16,0 28 15 SW 1015,9 12
14.12.2017 15:00:00 - - - - - - -
14.12.2017 14:00:00 - - - - - - -
14.12.2017 13:00:00 15,6 14,0 21 11 SW 1018,9 15
14.12.2017 12:00:00 - - - - - - -
14.12.2017 11:00:00 - - - - - - -
14.12.2017 10:00:00 15,4 13,6 22 12 WSW 1019,7 20
14.12.2017 09:00:00 - - - - - - -
14.12.2017 08:00:00 - - - - - - -
14.12.2017 07:00:00 14,6 11,4 28 15 WSW 1019,9 20
14.12.2017 06:00:00 - - - - - - -
14.12.2017 05:00:00 - - - - - - -
14.12.2017 04:00:00 - - - - - - -
14.12.2017 03:00:00 - - - - - - -
14.12.2017 02:00:00 - - - - - - -
14.12.2017 01:00:00 - - - - - - -
14.12.2017 00:00:00 - - - - - - -
13.12.2017 23:00:00 - - - - - - -
13.12.2017 22:00:00 - - - - - - -
13.12.2017 21:00:00 - - - - - - -
13.12.2017 20:00:00 - - - - - - -
13.12.2017 19:00:00 11,8 3,6 18 10 W 1023,0 20
13.12.2017 18:00:00 - - - - - - -
13.12.2017 17:00:00 - - - - - - -
13.12.2017 16:00:00 13,4 5,8 18 10 WNW 1022,9 20
13.12.2017 15:00:00 - - - - - - -
13.12.2017 14:00:00 - - - - - - -
13.12.2017 13:00:00 13,2 7,4 21 11 WNW 1023,3 20
13.12.2017 12:00:00 - - - - - - -
13.12.2017 11:00:00 - - - - - - -
13.12.2017 10:00:00 12,0 8,3 22 12 NW 1022,4 20
13.12.2017 09:00:00 - - - - - - -
13.12.2017 08:00:00 - - - - - - -
13.12.2017 07:00:00 11,8 11,8 18 10 NNW 1020,1 15
13.12.2017 06:00:00 - - - - - - -
13.12.2017 05:00:00 - - - - - - -
13.12.2017 04:00:00 - - - - - - -
13.12.2017 03:00:00 - - - - - - -
13.12.2017 02:00:00 - - - - - - -
13.12.2017 01:00:00 - - - - - - -
13.12.2017 00:00:00 - - - - - - -
12.12.2017 23:00:00 - - - - - - -
12.12.2017 22:00:00 - - - - - - -
12.12.2017 21:00:00 - - - - - - -
12.12.2017 20:00:00 - - - - - - -
12.12.2017 19:00:00 13,4 13,4 13 7 WNW 1015,3 15
12.12.2017 18:00:00 - - - - - - -
12.12.2017 17:00:00 - - - - - - -
12.12.2017 16:00:00 15,4 12,4 9 5 S 1013,0 12
12.12.2017 15:00:00 - - - - - - -
12.12.2017 14:00:00 - - - - - - -
12.12.2017 13:00:00 16,4 14,2 13 7 SSW 1012,5 15
12.12.2017 12:00:00 - - - - - - -
12.12.2017 11:00:00 - - - - - - -
12.12.2017 10:00:00 16,2 14,5 15 8 SSW 1011,7 10
12.12.2017 09:00:00 - - - - - - -
12.12.2017 08:00:00 - - - - - - -
12.12.2017 07:00:00 15,2 15,2 11 6 SSW 1009,3 20
12.12.2017 06:00:00 - - - - - - -
12.12.2017 05:00:00 - - - - - - -
12.12.2017 04:00:00 - - - - - - -
12.12.2017 03:00:00 - - - - - - -

tt = Température de l'air
td = dewpoint
ff = Vitesse du vent
dd = Direction du vent
ppp = reduced air pressure
vv = visibility

stations d'obs. à proximité